METAR AND TAF INFORMATION

METAR FOR MUCL
ADDS - METARS form results

(0834 UTC 04 February 2023)
Data provider http://aviationweather.gov/metar/data/
 
METAR text: MUCL 040750Z AUTO VRB08KT 25/21 Q1019
Conditions at: MUCL (CAYO LARGO D SUR, CU) observed 0750 UTC 04 February 2023
Temperature: 25.0°C (77°F)
Dewpoint: 21.0°C (70°F) [RH = 79%]
Pressure (altimeter): 30.09 inches Hg (1019.0 mb)
Winds: variable direction winds at 9 MPH (8 knots; 4.1 m/s)
Visibility: missing
Ceiling: unknown
Clouds: missing
Weather: no significant weather observed at this time

 

AIRPORT MAP

 

RUNWAY INFORMATION

Runway 12 Runway length 9869 ft Runway width 148 ft
Runway elevation 7 ft Runway displaced threshold 0 ft Runway heading 116
Runway 30 Runway length 9869 ft Runway width 148 ft
Runway elevation 10 ft Runway displaced threshold 0 ft Runway heading 296

 

AIRPORT FREQUENCIES

Type A/G Name CAYO LARGO Frequency 340.7 MHZ
Type APP Name CAYO LARGO Frequency 120.1 MHZ
Type TWR Name CAYO LARGO Frequency 118.5 MHZ

 

AIRPORT NEAR NAVIGATION AIDS

Type VOR-DME Name Cayo Largo Del Sur Frequency 112100 KHZ
Type NDB Name Cayo Largo Del Sur Frequency 230 KHZ